Weather Roundup
Issued by NWS Chicago, IL

Home | Current Version | Previous Version | Text Only | Print | Product List | Glossary On
Versions: 1 2 3 4 5 6 7 8 9 10 11 12 13 14 15 16 17 18 19 20 21 22 23 24 25 26 27 28 29 30 31 32 33 34 35 36 37 38 39 40 41 42 43 44 45 46 47 48 49 50
000
NZUS59 KLOT 290021
HRRLOT

CHICAGO AREA WEATHER ROUNDUP
NATIONAL WEATHER SERVICE CHICAGO/ROMEOVILLE IL
700 PM CDT SAT MAR 28 2015

NOTE: "FAIR" INDICATES FEW OR NO CLOUDS BELOW 12,000 FEET WITH NO
SIGNIFICANT WEATHER AND/OR OBSTRUCTIONS TO VISIBILITY.

* THESE STATIONS ARE NOT UNDER NWS QUALITY CONTROL. THEY ALSO MAY NOT
  REPORT WEATHER SUCH AS PRECIPITATION OR FOG.

ILZ005-006-012>014-019>023-290100-
NORTHEAST ILLINOIS

CITY           SKY/WX    TMP DP  RH WIND       PRES   REMARKS
OHARE          CLEAR     31  10  41 SE9       30.28S WCI  23
6HR MIN TEMP:  31; 6HR MAX TEMP:  36;

MIDWAY         CLEAR     33   8  35 E8        30.30S WCI  26
6HR MIN TEMP:  33; 6HR MAX TEMP:  37;

AURORA         CLEAR     37  11  34 S7        30.26F
6HR MIN TEMP:  37; 6HR MAX TEMP:  42;

LANSING*       CLEAR     30   9  41 E6        30.31R WCI  24
JOLIET*        CLEAR     38   8  28 CALM      30.28F
WAUKEGAN       CLEAR     28  13  53 SE10      30.27F WCI  19
6HR MIN TEMP:  28; 6HR MAX TEMP:  31;

DUPAGE AIRPORT CLEAR     35   7  31 SE8       30.26S WCI  29
6HR MIN TEMP:  35; 6HR MAX TEMP:  40;

WHEELING       CLEAR     32   7  35 E7        30.30S WCI  26
6HR MIN TEMP:  31; 6HR MAX TEMP:  34;

KANKAKEE*      CLEAR     36  12  36 S3        30.30R
MORRIS*          N/A     36  12  36 SE3       30.27S
LEWIS AIRPORT* CLEAR     35   8  32 SE7       30.28F WCI  29
NORTHERLY IS     N/A     28   7  41 E3          N/A
$$

WIZ051-052-058>065-066-070>072-290100-
SOUTHEAST WISCONSIN

CITY           SKY/WX    TMP DP  RH WIND       PRES   REMARKS
MILWAUKEE      CLEAR     30  12  47 S12       30.26F WCI  20
6HR MIN TEMP:  30; 6HR MAX TEMP:  34;

KENOSHA*       CLEAR     29  13  51 SE7       30.27F WCI  22
RACINE*        CLEAR     29  14  53 S12       30.29F WCI  19
BURLINGTON     CLEAR     32  14  47 SE12      30.25S WCI  23
WAUKESHA       CLEAR     34  16  47 SE12      30.24F WCI  25
WEST BEND      CLEAR     30  14  51 SE6       30.23F WCI  24
$$

INZ001>003-010>013-019-020-290100-
NORTHWEST INDIANA

CITY           SKY/WX    TMP DP  RH WIND       PRES   REMARKS
GARY*          CLEAR     30   7  37 NE8       30.32S WCI  23
MICHIGAN CITY* NOT AVBL
RENSSELAER*    NOT AVBL
VALPARAISO     CLEAR     29  12  49 N5        30.30S WCI  24
$$

LMZ740>746-290100-
SOUTHERN LAKE MICHIGAN

STATION/POSITION TIME  SKY/WX   TEMP WIND        PRES    VSBY
                                AIR  DIR/SP/G
                 (UTC)          (F)  (DEG/KT/KT) (MB)    (MI)
HARRISON CRIB    0000            28  110/  6/  7   N/A
BURNHAM HARBOR   0000            28   80/  4/  6   N/A
CALUMET HARBOR   2300            28   50/  6/  7 1025.1F
BURNS HARBOR     2300            27   20/  6/  7 1027.1S
MICHIGAN CITY    0000            26   20/  6/  7   N/A
$$

ABBREVIATIONS USED IN REMARKS
   TC - TEMPERATURE IN CELSIUS
  WCI - WIND CHILL INDEX
   HX - HEAT INDEX
  VSB - VISIBILITY
$$


USA.gov is the U.S. government's official web portal to all federal, state and local government web resources and services.